User: anonymous   Login
Location: Eckley
(40.9930°N, 75.8630°W)
Time: 07:33:58
(UTC-05:00)
Language:

Cosmos 2221 Rocket - Orbit

View from above orbital plane
View from above orbital plane
View from above satellite
View from above satellite

Ground track
Ground track

The orbit data is extracted from the following two-line orbital elements,

1 22237U 92080B   17054.56454812  .00000114  00000-0  12561-4 0  9992
2 22237  82.5104 223.4068 0018904 213.4995 210.0595 14.78303324306655
Epoch (UTC): 23 February 2017 13:32:56
Eccentricity: 0.0018904
inclination: 82.5104°
perigee height: 621 km
apogee height: 648 km
right ascension of ascending node: 223.4068°
argument of perigee: 213.4995°
revolutions per day: 14.78303324
mean anomaly at epoch: 210.0595°
orbit number at epoch: 30665

The dashed part of the orbit path shows where the satellite is in the earth's shadow,  

DLR